Location: Hilderbrand
(37.5756°N, 89.8540°W)
Time: 12:53:52
(UTC+00:00)

Okean 1 Rocket - Pass Details

Date: 15 November 2025
Orbit: 599 x 628 km, 82.5° (Epoch: 05 December)

Event Time Altitude Azimuth Distance (km) Brightness Sun altitude
Rises 23:39:50 0° 148° (SSE) 2,894 6.3 -10.5°
Reaches altitude 10° 23:42:40 10° 129° (SE) 1,988 5.3 -11.0°
Maximum altitude 23:45:35 18° 87° (E) 1,545 4.5 -11.6°
Enters shadow 23:46:28 17° 72° (ENE) 1,589 4.5 -11.7°
